Regional Weather Roundup
Issued by NWS Glasgow, MT

Home | Current Version | Previous Version | Text Only | Print | Product List | Glossary On
Versions: 1 2 3 4 5 6 7 8 9 10 11 12 13 14 15 16 17 18 19 20 21 22 23 24 25 26 27
000
ASUS45 KGGW 302315
RWRGGW
HOURLY REGIONAL WEATHER ROUNDUP FOR NORTHEAST MONTANA
NATIONAL WEATHER SERVICE GLASGOW MONTANA
500 PM MDT FRI SEP 30 2016

NOTE: "FAIR" INDICATES FEW OR NO CLOUDS BELOW 12,000 FEET WITH NO
SIGNIFICANT WEATHER AND/OR OBSTRUCTIONS TO VISISBILITY.

NORTHEAST MONTANA


CITY           SKY/WX    TMP DP  RH WIND       PRES   REMARKS
GLASGOW        SUNNY     80  51  36 W7        29.93R
PLENTYWOOD       N/A     70  49  47 S10         N/A
WOLF POINT     SUNNY     80  53  39 E8        29.93R
JORDAN           N/A     82  53  36 N9        29.95R
WINNETT          N/A     81  45  28 N8          N/A
SIDNEY         CLOUDY    66  54  65 E7        29.97S
GLENDIVE       SUNNY     77  58  51 E7        29.95S
MALTA            N/A     84  56  38 N6          N/A
SCOBEY           N/A     76  49  38 CALM      29.96
OPHEIM           N/A     75  46  35 N2        29.74R

FORT PECK REPORTS


CITY           SKY/WX    TMP DP  RH WIND       PRES   REMARKS
FORT PECK        N/A     77  52  41 SE3         N/A
THE PINES        N/A     79  50  36 CALM        N/A

SOUTHEAST MONTANA


CITY           SKY/WX    TMP DP  RH WIND       PRES   REMARKS
BILLINGS       MOSUNNY   82  42  24 NW5       29.99S
MILES CITY     SUNNY     81  49  32 SW10      29.94R
BAKER          SUNNY     75  50  41 SE10      29.99S
LIVINGSTON     SUNNY     79  38  22 SW15      30.04F

CENTRAL MONTANA


CITY           SKY/WX    TMP DP  RH WIND       PRES   REMARKS
HAVRE          SUNNY     79  53  40 E8        29.94R
LEWISTOWN      SUNNY     77  46  33 N3        30.03R
GREAT FALLS    SUNNY     78  44  29 E6        29.96F
CUT BANK       MOSUNNY   75  44  33 S13       29.98S
HELENA         PTSUNNY   76  47  35 NW13G20   29.98R
BUTTE          SUNNY     67  41  38 E9        30.10S
BOZEMAN        SUNNY     78  43  28 CALM      30.05S

WESTERN MONTANA


CITY           SKY/WX    TMP DP  RH WIND       PRES   REMARKS
MISSOULA       MOSUNNY   82  37  20 SE6       29.91F
KALISPELL      NOT AVBL

NORTH DAKOTA


CITY           SKY/WX    TMP DP  RH WIND       PRES   REMARKS
WILLISTON      CLOUDY    62  52  69 SE8       30.01R
DICKINSON      SUNNY     67  46  47 SE15      30.01S
MINOT          CLOUDY    65  53  65 E8        30.06F
BISMARCK       CLOUDY    69  47  45 SE12      30.06F

SOUTHERN SASKATCHEWAN


CITY           SKY/WX    TMP DP  RH WIND       PRES   REMARKS
REGINA         MOSUNNY   68  52  56 SE16      29.98R
MOOSE JAW      PTSUNNY   73  55  53 E5        29.96S
ESTEVAN        PTSUNNY   57  52  82 E12       30.03R
SWIFT CURRENT  SUNNY     68  52  56 NE7       29.97S





USA.gov is the U.S. government's official web portal to all federal, state and local government web resources and services.